Simultaneous Nadir Overpasses (SNOs) Predictions

Prediction of SNOs between AQUA and GOES-15 Satellite Orbit:

Table of predicted SNOs for the next 14.0 days since TLE Epoch: 5/15/2020
Index Date Time (AQUA) AQUA Lat,Lon GOES-15 Lat,Lon Distance(km) Time Diff (sec)
1 05/16/2020 10:19:27 0.49,-130.86 -0.05,-128.30 291.00 80
2 05/18/2020 10:07:16 -0.16,-127.91 -0.05,-128.30 44.12 80
3 05/20/2020 09:55:04 -0.74,-124.95 -0.06,-128.28 378.74 80
4 05/20/2020 22:16:29 -0.35,-130.14 0.04,-128.27 212.97 80
5 05/22/2020 22:04:18 0.30,-127.19 0.05,-128.25 121.06 80
6 05/23/2020 10:25:32 0.86,-132.33 -0.03,-128.26 463.60 80
7 05/24/2020 21:52:06 0.90,-124.23 0.05,-128.22 454.23 80
8 05/25/2020 10:13:21 0.21,-129.38 -0.03,-128.23 130.74 80
9 05/27/2020 10:01:09 -0.38,-126.42 -0.04,-128.20 201.44 80
10 05/27/2020 22:22:34 -0.69,-131.62 0.02,-128.17 391.76 80




NCC Satellite Simultaneous Nadir Overpasses (SNOs) Prediction Service
